| time (UTC) | temp F | wind direction | speed MPH | gust MPH | rain 1hr in | rain 24hr in | rain mn in | humidity % | barometer mb |
| 20260504033406 | 36 | 335 | 0.0 | 0.0 | 0.00 | 0.34 | 0.34 | 91 | 1000.4 |
| 20260504032903 | 36 | 128 | 0.0 | 0.0 | 0.00 | 0.34 | 0.34 | 91 | 1000.4 |
| 20260504032400 | 36 | 165 | 0.0 | 0.0 | 0.00 | 0.34 | 0.34 | 91 | 1000.4 |
| 20260504031856 | 36 | 192 | 0.0 | 0.0 | 0.00 | 0.34 | 0.34 | 91 | 1000.4 |
| 20260504031353 | 36 | 274 | 0.0 | 0.0 | 0.00 | 0.34 | 0.34 | 92 | 1000.4 |
| 20260504030850 | 37 | 251 | 0.0 | 0.0 | 0.00 | 0.34 | 0.34 | 92 | 1000.4 |
| 20260504030347 | 37 | 158 | 0.0 | 0.0 | 0.00 | 0.34 | 0.34 | 92 | 1000.4 |
| 20260504025843 | 37 | 32 | 0.0 | 0.0 | 0.00 | 0.34 | 0.34 | 92 | 1000.4 |
| 20260504025340 | 37 | 269 | 0.0 | 0.0 | 0.00 | 0.34 | 0.34 | 92 | 1000.4 |
| 20260504024837 | 38 | 259 | 0.0 | 0.0 | 0.00 | 0.34 | 0.34 | 92 | 1000.4 |
| 20260504024333 | 38 | 240 | 0.0 | 0.0 | 0.00 | 0.34 | 0.34 | 92 | 1000.4 |
| 20260504023830 | 38 | 224 | 0.0 | 0.0 | 0.00 | 0.34 | 0.34 | 92 | 1000.4 |
| 20260504023327 | 38 | 197 | 0.0 | 0.0 | 0.00 | 0.34 | 0.34 | 92 | 1000.4 |
| 20260504022822 | 38 | 184 | 0.0 | 0.0 | 0.00 | 0.34 | 0.34 | 92 | 1000.4 |
| 20260504022320 | 38 | 1 | 0.0 | 0.0 | 0.00 | 0.34 | 0.34 | 92 | 1000.4 |
| 20260504021816 | 38 | 220 | 0.0 | 0.0 | 0.00 | 0.34 | 0.34 | 92 | 1000.4 |
| 20260504021314 | 38 | 14 | 0.0 | 0.0 | 0.00 | 0.34 | 0.34 | 92 | 1000.4 |
| 20260504020810 | 38 | 242 | 0.0 | 0.0 | 0.00 | 0.34 | 0.34 | 92 | 1000.4 |
| 20260504020307 | 39 | 196 | 0.0 | 0.0 | 0.00 | 0.34 | 0.34 | 92 | 1000.4 |
| 20260504015757 | 39 | 83 | 0.0 | 0.0 | 0.00 | 0.34 | 0.34 | 92 | 1000.4 |
| 20260504015254 | 39 | 189 | 0.0 | 0.0 | 0.00 | 0.34 | 0.34 | 92 | 1000.4 |
| 20260504014750 | 39 | 35 | 0.0 | 0.0 | 0.00 | 0.34 | 0.34 | 92 | 1000.4 |
| 20260504014246 | 39 | 1 | 0.0 | 0.0 | 0.00 | 0.34 | 0.34 | 92 | 1000.9 |
| 20260504013744 | 39 | 16 | 0.0 | 0.0 | 0.00 | 0.34 | 0.34 | 92 | 1000.9 |
| 20260504013242 | 39 | 49 | 0.0 | 0.0 | 0.00 | 0.34 | 0.34 | 92 | 1000.9 |
| 20260504012738 | 39 | 23 | 0.0 | 0.0 | 0.00 | 0.34 | 0.34 | 92 | 1000.9 |
| 20260504012236 | 39 | 260 | 0.0 | 0.0 | 0.00 | 0.34 | 0.34 | 92 | 1000.9 |
| 20260504011732 | 39 | 63 | 0.0 | 0.0 | 0.00 | 0.34 | 0.34 | 92 | 1000.9 |
| 20260504011229 | 39 | 357 | 0.0 | 0.0 | 0.00 | 0.34 | 0.34 | 92 | 1000.9 |
| 20260504010725 | 40 | 359 | 0.0 | 0.0 | 0.00 | 0.34 | 0.34 | 92 | 1000.9 |
| 20260504010221 | 40 | 353 | 0.0 | 0.0 | 0.00 | 0.34 | 0.34 | 92 | 1000.9 |
| 20260504005718 | 40 | 24 | 0.0 | 0.0 | 0.00 | 0.34 | 0.34 | 92 | 1000.9 |
| 20260504005215 | 40 | 66 | 0.0 | 0.0 | 0.00 | 0.34 | 0.34 | 92 | 1000.9 |
| 20260504004712 | 40 | 307 | 0.0 | 0.0 | 0.00 | 0.34 | 0.34 | 92 | 1000.9 |
| 20260504004209 | 40 | 6 | 0.0 | 0.0 | 0.00 | 0.34 | 0.34 | 92 | 1000.4 |
| 20260504003706 | 40 | 6 | 0.0 | 0.0 | 0.00 | 0.34 | 0.34 | 92 | 1000.4 |
| 20260504003203 | 40 | 179 | 0.0 | 0.0 | 0.00 | 0.34 | 0.34 | 92 | 1000.4 |
| 20260504002700 | 40 | 354 | 0.0 | 0.0 | 0.00 | 0.34 | 0.34 | 92 | 1000.4 |
| 20260504002157 | 40 | 6 | 0.0 | 0.0 | 0.00 | 0.34 | 0.34 | 92 | 1000.4 |
| 20260504001655 | 40 | 5 | 0.0 | 0.0 | 0.00 | 0.34 | 0.34 | 92 | 1000.4 |
| 20260504001151 | 40 | 333 | 0.0 | 0.0 | 0.00 | 0.34 | 0.34 | 92 | 1000.4 |
| 20260504000648 | 40 | 2 | 0.0 | 2.0 | 0.00 | 0.34 | 0.34 | 92 | 1000.4 |
| 20260504000145 | 40 | 24 | 0.0 | 0.0 | 0.00 | 0.34 | 0.34 | 92 | 1000.4 |
| 20260503235643 | 40 | 348 | 0.0 | 0.0 | 0.00 | 0.34 | 0.34 | 92 | 1000.4 |
| 20260503235139 | 40 | 2 | 0.0 | 0.0 | 0.00 | 0.34 | 0.34 | 92 | 1000.4 |
| 20260503234638 | 40 | 8 | 0.0 | 0.0 | 0.00 | 0.34 | 0.34 | 92 | 1000.4 |
| 20260503234136 | 40 | 43 | 0.0 | 0.0 | 0.00 | 0.34 | 0.34 | 92 | 1000.4 |
| 20260503233632 | 40 | 10 | 0.0 | 0.0 | 0.00 | 0.34 | 0.34 | 92 | 1000.4 |
| 20260503233128 | 40 | 358 | 0.0 | 0.0 | 0.00 | 0.34 | 0.34 | 92 | 1000.4 |
| 20260503232625 | 40 | 348 | 0.0 | 0.0 | 0.00 | 0.34 | 0.34 | 92 | 1000.4 |
| 20260503232122 | 40 | 40 | 0.0 | 0.0 | 0.00 | 0.34 | 0.34 | 92 | 1000.1 |
| 20260503231620 | 40 | 25 | 0.0 | 0.0 | 0.07 | 0.34 | 0.34 | 92 | 1000.4 |
| 20260503231117 | 40 | 6 | 0.0 | 0.0 | 0.07 | 0.34 | 0.34 | 92 | 1000.4 |
| 20260503230614 | 40 | 353 | 0.0 | 0.0 | 0.00 | 0.33 | 0.33 | 92 | 1000.4 |
| 20260503230111 | 40 | 326 | 0.0 | 0.0 | 0.00 | 0.33 | 0.33 | 92 | 1000.4 |
| 20260503225608 | 40 | 322 | 0.0 | 0.0 | 0.00 | 0.33 | 0.33 | 92 | 1000.4 |
| 20260503225107 | 40 | 340 | 0.0 | 0.0 | 0.00 | 0.33 | 0.33 | 92 | 1000.4 |
| 20260503224605 | 40 | 32 | 0.0 | 0.0 | 0.00 | 0.33 | 0.33 | 92 | 1000.4 |
| 20260503224103 | 40 | 39 | 0.0 | 0.0 | 0.00 | 0.33 | 0.33 | 92 | 1000.4 |
| 20260503223601 | 40 | 8 | 0.0 | 0.0 | 0.00 | 0.33 | 0.33 | 92 | 1000.4 |
| 20260503223056 | 40 | 9 | 0.0 | 0.0 | 0.00 | 0.33 | 0.33 | 92 | 1000.1 |
| 20260503222554 | 40 | 21 | 0.0 | 0.0 | 0.00 | 0.33 | 0.33 | 92 | 1000.4 |
| 20260503222052 | 41 | 7 | 0.0 | 0.0 | 0.00 | 0.33 | 0.33 | 92 | 1000.4 |
| 20260503221550 | 41 | 40 | 0.0 | 0.0 | 0.00 | 0.33 | 0.33 | 92 | 1000.4 |
| 20260503221047 | 41 | 79 | 0.0 | 0.0 | 0.00 | 0.33 | 0.33 | 92 | 1000.4 |
| 20260503220543 | 41 | 159 | 0.0 | 0.0 | 0.00 | 0.33 | 0.33 | 92 | 1000.4 |
| 20260503220040 | 41 | 359 | 0.0 | 0.0 | 0.00 | 0.33 | 0.33 | 92 | 1000.4 |
| 20260503215537 | 41 | 6 | 0.0 | 0.0 | 0.00 | 0.33 | 0.33 | 92 | 1000.4 |
| 20260503215034 | 41 | 5 | 0.0 | 0.0 | 0.00 | 0.33 | 0.33 | 92 | 1000.9 |
| 20260503214533 | 41 | 14 | 0.0 | 0.0 | 0.00 | 0.33 | 0.33 | 92 | 1000.4 |
| 20260503214029 | 41 | 354 | 0.0 | 0.0 | 0.00 | 0.33 | 0.33 | 92 | 1000.9 |
| 20260503213528 | 41 | 334 | 0.0 | 0.0 | 0.00 | 0.33 | 0.33 | 92 | 1000.9 |
| 20260503213024 | 41 | 4 | 0.0 | 0.0 | 0.00 | 0.33 | 0.33 | 92 | 1000.9 |
| 20260503212521 | 41 | 7 | 0.0 | 0.0 | 0.07 | 0.33 | 0.33 | 92 | 1000.9 |
| 20260503212019 | 41 | 354 | 0.0 | 0.0 | 0.00 | 0.32 | 0.32 | 92 | 1000.9 |
| 20260503211515 | 41 | 143 | 0.0 | 0.0 | 0.00 | 0.32 | 0.32 | 92 | 1001.2 |
| 20260503211011 | 41 | 289 | 0.0 | 0.0 | 0.00 | 0.32 | 0.32 | 92 | 1001.2 |
| 20260503210508 | 41 | 0 | 0.0 | 0.0 | 0.00 | 0.32 | 0.32 | 91 | 1001.2 |
| 20260503210004 | 41 | 13 | 0.0 | 0.0 | 0.00 | 0.32 | 0.32 | 91 | 1001.2 |
| 20260503205500 | 41 | 13 | 0.0 | 0.0 | 0.00 | 0.32 | 0.32 | 91 | 1001.2 |
| 20260503204956 | 41 | 29 | 0.0 | 0.0 | 0.00 | 0.32 | 0.32 | 91 | 1001.2 |
| 20260503204454 | 41 | 23 | 0.0 | 0.0 | 0.00 | 0.32 | 0.32 | 91 | 1001.2 |
| 20260503203950 | 41 | 334 | 0.0 | 0.0 | 0.00 | 0.32 | 0.32 | 91 | 1001.2 |
| 20260503203448 | 41 | 238 | 0.0 | 0.0 | 0.00 | 0.32 | 0.32 | 91 | 1001.2 |
| 20260503202944 | 41 | 353 | 0.0 | 0.0 | 0.07 | 0.32 | 0.32 | 91 | 1001.6 |
| 20260503202443 | 41 | 250 | 0.0 | 0.0 | 0.07 | 0.32 | 0.32 | 91 | 1001.6 |
| 20260503201941 | 41 | 50 | 0.0 | 0.0 | 0.00 | 0.31 | 0.31 | 91 | 1001.6 |
| 20260503201438 | 41 | 9 | 0.0 | 0.0 | 0.00 | 0.31 | 0.31 | 91 | 1001.9 |
| 20260503200936 | 41 | 327 | 0.0 | 0.0 | 0.00 | 0.31 | 0.31 | 91 | 1001.6 |
| 20260503200432 | 41 | 11 | 0.0 | 0.0 | 0.07 | 0.31 | 0.31 | 91 | 1001.6 |
| 20260503195928 | 41 | 36 | 0.0 | 0.0 | 0.00 | 0.30 | 0.30 | 91 | 1001.9 |
| 20260503195426 | 41 | 97 | 0.0 | 0.0 | 0.00 | 0.30 | 0.30 | 91 | 1002.2 |
| 20260503194922 | 41 | 18 | 0.0 | 0.0 | 0.07 | 0.30 | 0.30 | 91 | 1001.9 |
| 20260503194419 | 41 | 2 | 0.0 | 0.0 | 0.00 | 0.30 | 0.30 | 91 | 1002.2 |
| 20260503193914 | 41 | 306 | 0.0 | 0.0 | 0.07 | 0.28 | 0.28 | 91 | 1002.2 |
| 20260503193410 | 41 | 16 | 0.0 | 0.0 | 0.07 | 0.28 | 0.28 | 91 | 1002.2 |
| 20260503192906 | 41 | 52 | 0.0 | 0.0 | 0.07 | 0.27 | 0.27 | 91 | 1002.2 |
| 20260503192402 | 41 | 354 | 0.0 | 0.0 | 0.07 | 0.27 | 0.27 | 91 | 1002.2 |
| 20260503191859 | 41 | 345 | 0.0 | 0.0 | 0.00 | 0.26 | 0.26 | 91 | 1002.6 |
| 20260503191356 | 41 | 349 | 0.0 | 0.0 | 0.00 | 0.26 | 0.26 | 91 | 1002.6 |
| 20260503190852 | 41 | 91 | 0.0 | 0.0 | 0.07 | 0.26 | 0.26 | 91 | 1002.6 |
| 20260503190349 | 41 | 10 | 0.0 | 0.0 | 0.07 | 0.26 | 0.26 | 91 | 1002.6 |
| 20260503185846 | 41 | 93 | 0.0 | 0.0 | 0.00 | 0.25 | 0.25 | 91 | 1002.6 |
| 20260503185343 | 41 | 106 | 0.0 | 0.0 | 0.07 | 0.25 | 0.25 | 91 | 1002.6 |
| 20260503184842 | 41 | 26 | 0.0 | 0.0 | 0.07 | 0.25 | 0.25 | 91 | 1002.6 |
| 20260503184339 | 41 | 342 | 0.0 | 0.0 | 0.00 | 0.24 | 0.24 | 91 | 1002.9 |
| 20260503183834 | 41 | 344 | 0.0 | 0.0 | 0.00 | 0.24 | 0.24 | 91 | 1002.9 |
| 20260503183332 | 41 | 8 | 0.0 | 0.0 | 0.00 | 0.24 | 0.24 | 91 | 1002.9 |
| 20260503182829 | 41 | 66 | 0.0 | 0.0 | 0.00 | 0.24 | 0.24 | 91 | 1002.9 |
| 20260503182328 | 41 | 6 | 0.0 | 0.0 | 0.00 | 0.24 | 0.24 | 91 | 1002.6 |
| 20260503181825 | 41 | 51 | 0.0 | 0.0 | 0.00 | 0.24 | 0.24 | 91 | 1002.9 |
| 20260503181322 | 41 | 11 | 0.0 | 0.0 | 0.00 | 0.24 | 0.24 | 91 | 1002.6 |
| 20260503180818 | 41 | 351 | 0.0 | 0.0 | 0.00 | 0.24 | 0.24 | 91 | 1002.6 |
| 20260503180317 | 41 | 137 | 0.0 | 0.0 | 0.07 | 0.24 | 0.24 | 91 | 1002.6 |
| 20260503175813 | 41 | 11 | 0.0 | 0.0 | 0.00 | 0.22 | 0.22 | 90 | 1002.6 |
| 20260503175311 | 41 | 6 | 0.0 | 2.0 | 0.00 | 0.22 | 0.22 | 91 | 1002.6 |
| 20260503174806 | 41 | 356 | 0.0 | 0.0 | 0.00 | 0.22 | 0.22 | 91 | 1002.6 |
| 20260503174305 | 41 | 322 | 0.0 | 0.0 | 0.00 | 0.22 | 0.22 | 91 | 1002.6 |
| 20260503173800 | 41 | 6 | 0.0 | 0.0 | 0.00 | 0.22 | 0.22 | 90 | 1002.6 |
| 20260503173255 | 41 | 71 | 0.0 | 0.0 | 0.07 | 0.22 | 0.22 | 90 | 1002.6 |
| 20260503172753 | 41 | 15 | 0.0 | 0.0 | 0.07 | 0.22 | 0.22 | 90 | 1002.6 |
| 20260503172250 | 41 | 17 | 0.0 | 0.0 | 0.00 | 0.21 | 0.21 | 90 | 1002.9 |
| 20260503171746 | 41 | 337 | 0.0 | 0.0 | 0.00 | 0.21 | 0.21 | 90 | 1002.9 |
| 20260503171244 | 41 | 4 | 0.0 | 0.0 | 0.00 | 0.21 | 0.21 | 90 | 1003.2 |
| 20260503170741 | 41 | 45 | 0.0 | 0.0 | 0.00 | 0.21 | 0.21 | 90 | 1003.2 |
| 20260503170237 | 41 | 14 | 0.0 | 0.0 | 0.07 | 0.21 | 0.21 | 90 | 1003.2 |
| 20260503160159 | 40 | 13 | 0.0 | 0.0 | 0.00 | 0.18 | 0.18 | 90 | 1003.9 |
| 20260503150629 | 40 | 81 | 0.0 | 0.0 | 0.00 | 0.15 | 0.15 | 90 | 1004.9 |
| 20260503150125 | 40 | 12 | 0.0 | 0.0 | 0.00 | 0.15 | 0.15 | 90 | 1004.9 |
| 20260503131019 | 38 | 143 | 0.0 | 0.0 | 0.00 | 0.13 | 0.13 | 92 | 1006.4 |
| 20260503130517 | 39 | 137 | 0.0 | 0.0 | 0.00 | 0.13 | 0.13 | 92 | 1006.4 |
| 20260503110413 | 38 | 178 | 0.0 | 0.0 | 0.07 | 0.08 | 0.08 | 92 | 1006.7 |
| 20260503090258 | 38 | 197 | 0.0 | 0.0 | 0.00 | 0.02 | 0.02 | 91 | 1007.4 |
| 20260503081231 | 38 | 190 | 0.0 | 0.0 | 0.00 | 0.01 | 0.01 | 91 | 1007.7 |
| 20260503080726 | 38 | 198 | 0.0 | 0.0 | 0.00 | 0.01 | 0.01 | 91 | 1007.4 |
| 20260503080224 | 38 | 198 | 0.0 | 0.0 | 0.00 | 0.01 | 0.01 | 91 | 1007.1 |
| 20260503072701 | 38 | 186 | 0.0 | 0.0 | 0.00 | 0.00 | 0.00 | 91 | 1007.7 |
| 20260503072157 | 38 | 195 | 0.0 | 0.0 | 0.00 | 0.00 | 0.00 | 91 | 1007.7 |
| 20260503071654 | 38 | 201 | 0.0 | 0.0 | 0.00 | 0.00 | 0.00 | 91 | 1008.1 |
| 20260503071151 | 38 | 205 | 0.0 | 0.0 | 0.00 | 0.00 | 0.00 | 91 | 1008.1 |
| 20260503070648 | 38 | 196 | 0.0 | 0.0 | 0.00 | 0.00 | 0.00 | 91 | 1007.7 |
| 20260503070146 | 38 | 206 | 0.0 | 0.0 | 0.00 | 0.00 | 0.00 | 91 | 1007.7 |
| 20260503060110 | 38 | 193 | 0.0 | 0.0 | 0.00 | 0.00 | 0.00 | 91 | 1008.4 |
| 20260503055102 | 38 | 201 | 0.0 | 0.0 | 0.00 | 0.00 | 0.00 | 91 | 1008.4 |
| 20260503054557 | 38 | 194 | 0.0 | 0.0 | 0.00 | 0.00 | 0.00 | 91 | 1008.4 |
| 20260503054054 | 38 | 193 | 0.0 | 0.0 | 0.00 | 0.00 | 0.00 | 91 | 1008.4 |
| 20260503053553 | 38 | 193 | 0.0 | 0.0 | 0.00 | 0.00 | 0.00 | 91 | 1008.4 |
| 20260503053050 | 38 | 191 | 0.0 | 0.0 | 0.00 | 0.00 | 0.00 | 91 | 1008.8 |
| 20260503052547 | 38 | 192 | 0.0 | 0.0 | 0.00 | 0.00 | 0.00 | 91 | 1008.8 |
| 20260503052043 | 38 | 189 | 0.0 | 0.0 | 0.00 | 0.00 | 0.00 | 91 | 1008.8 |
| 20260503051538 | 38 | 190 | 0.0 | 0.0 | 0.00 | 0.00 | 0.00 | 91 | 1008.8 |
| 20260503051037 | 38 | 198 | 0.0 | 0.0 | 0.00 | 0.00 | 0.00 | 91 | 1008.8 |
| 20260503050531 | 38 | 190 | 0.0 | 0.0 | 0.00 | 0.00 | 0.00 | 91 | 1009.1 |
| 20260503050030 | 38 | 194 | 0.0 | 0.0 | 0.00 | 0.00 | 0.00 | 91 | 1009.1 |
| 20260503045527 | 38 | 196 | 0.0 | 0.0 | 0.00 | 0.00 | 0.00 | 91 | 1009.1 |
| 20260503045024 | 38 | 190 | 0.0 | 0.0 | 0.00 | 0.00 | 0.00 | 91 | 1009.1 |
| 20260503044520 | 37 | 198 | 0.0 | 0.0 | 0.00 | 0.00 | 0.00 | 91 | 1009.1 |
| 20260503044018 | 37 | 198 | 0.0 | 0.0 | 0.00 | 0.00 | 0.00 | 91 | 1009.1 |
| 20260503043513 | 37 | 198 | 0.0 | 0.0 | 0.00 | 0.00 | 0.00 | 90 | 1009.1 |
| 20260503043010 | 37 | 198 | 0.0 | 0.0 | 0.00 | 0.00 | 0.00 | 90 | 1009.5 |
| 20260503042508 | 37 | 199 | 0.0 | 0.0 | 0.00 | 0.00 | 0.00 | 90 | 1009.1 |
| 20260503042003 | 37 | 196 | 0.0 | 0.0 | 0.00 | 0.00 | 0.00 | 90 | 1009.5 |
| 20260503041501 | 37 | 196 | 0.0 | 0.0 | 0.00 | 0.00 | 0.00 | 90 | 1009.5 |
| 20260503040959 | 37 | 197 | 0.0 | 0.0 | 0.00 | 0.00 | 0.00 | 90 | 1009.5 |
| 20260503040456 | 37 | 195 | 0.0 | 0.0 | 0.00 | 0.00 | 0.00 | 90 | 1009.5 |
| 20260503035953 | 37 | 199 | 0.0 | 0.0 | 0.00 | 0.00 | 0.00 | 90 | 1009.5 |
| 20260503035449 | 37 | 209 | 0.0 | 0.0 | 0.00 | 0.00 | 0.00 | 90 | 1009.5 |
| 20260503034947 | 37 | 201 | 0.0 | 0.0 | 0.00 | 0.00 | 0.00 | 90 | 1009.5 |
| 20260503034444 | 37 | 191 | 0.0 | 0.0 | 0.00 | 0.00 | 0.00 | 90 | 1009.5 |
| 20260503033941 | 37 | 202 | 0.0 | 0.0 | 0.00 | 0.00 | 0.00 | 90 | 1009.5 |